GCSBL EGHQ-EGHH

Flight info

Callsign GCSBL
Flight time N/A
Altitude 4000
Route DAWLY DCT BRIPO DCT GIBSO
Aircraft C172/L-SFG/C

Departure

Time 2026-05-04 11:25
Airport Cornwall Airport Newquay (EGHQ)

Arrival

Time N/A
Airport Bournemouth Airport (EGHH)
Time Latitude Longitude Altitude Speed Heading
2026-05-04 11:05 50.43972 -4.99909 326 ft 0 kts 69°
2026-05-04 11:16 50.43933 -4.99761 338 ft 11 kts 86°
2026-05-04 11:16 50.43915 -4.99667 340 ft 6 kts 112°
2026-05-04 11:16 50.43908 -4.99635 340 ft 1 kts 107°
2026-05-04 11:17 50.43900 -4.99610 340 ft 4 kts 121°
2026-05-04 11:17 50.43884 -4.99552 341 ft 7 kts 92°
2026-05-04 11:19 50.44341 -4.99704 341 ft 14 kts 300°
2026-05-04 11:19 50.44406 -4.99882 334 ft 15 kts 299°
2026-05-04 11:19 50.44469 -5.00040 324 ft 17 kts 298°
2026-05-04 11:19 50.44526 -5.00202 320 ft 16 kts 300°
2026-05-04 11:20 50.44587 -5.00353 316 ft 15 kts 301°
2026-05-04 11:20 50.44641 -5.00500 312 ft 15 kts 301°
2026-05-04 11:20 50.44694 -5.00640 309 ft 14 kts 300°
2026-05-04 11:20 50.44742 -5.00769 307 ft 13 kts 300°
2026-05-04 11:22 50.44803 -5.01036 301 ft 0 kts 253°
2026-05-04 11:24 50.43915 -4.98985 705 ft 78 kts 115°
2026-05-04 11:25 50.43642 -4.98266 899 ft 76 kts 115°
2026-05-04 11:25 50.43371 -4.97560 1083 ft 75 kts 115°
2026-05-04 11:25 50.43102 -4.96871 1268 ft 74 kts 115°
2026-05-04 11:26 50.43015 -4.96647 1321 ft 74 kts 115°